period_start,C,m1,H,J0,J1,J2,J3,J4,J5,JA,JB,JC,JD,JJ,JK,JN,#
2015-11-06 00:04:42,0.02,1.87,0.00,19.22,23.77,27.69,15.06,49.14,1031.26,2046.99,2869.95,2776.61,3025.98,599.59,612.10,37.24,0000 0000 0000 0000 000000
2015-11-06 00:09:44,0.03,1.87,0.00,19.22,23.76,27.71,14.96,49.09,1031.23,2046.99,2869.30,2776.06,3025.65,599.96,612.43,37.29,0000 0000 0000 0000 000000
2015-11-06 00:14:45,0.01,1.87,0.00,19.22,23.75,27.66,14.99,49.00,1031.15,2046.99,2868.99,2776.00,3025.05,600.09,612.47,37.34,0000 0000 0000 0000 000000
2015-11-06 00:19:46,0.01,1.87,0.00,19.22,23.75,27.61,14.96,49.09,1031.16,2046.99,2868.63,2775.93,3024.99,600.01,612.38,37.39,0000 0000 0000 0000 000000
2015-11-06 00:24:48,0.03,1.87,0.00,19.21,23.73,27.63,14.96,49.03,1031.16,2046.99,2868.02,2775.31,3024.77,599.99,612.52,37.45,0000 0000 0000 0000 000000
2015-11-06 00:29:49,0.01,1.87,0.00,19.20,23.72,27.61,15.05,49.24,1031.15,2046.99,2867.96,2775.01,3024.09,600.14,612.56,37.50,0000 0000 0000 0000 000000
2015-11-06 00:34:50,0.01,1.88,0.00,19.19,23.72,27.69,14.99,49.13,1031.14,2046.99,2867.23,2774.99,3024.00,600.30,612.70,37.55,0000 0000 0000 0000 000000
2015-11-06 00:39:51,0.01,1.88,0.00,19.19,23.72,27.55,14.97,49.07,1030.97,2046.99,2867.00,2774.85,3023.97,599.97,612.30,37.60,0000 0000 0000 0000 000000
2015-11-06 00:44:52,0.03,1.88,0.00,19.19,23.70,27.62,14.97,49.08,1030.99,2046.99,2866.89,2774.14,3023.50,600.17,612.50,37.65,0000 0000 0000 0000 000000
2015-11-06 00:49:53,0.02,1.88,0.00,19.17,23.70,27.57,15.05,49.19,1031.00,2046.99,2866.08,2774.00,3023.03,600.12,612.45,37.70,0000 0000 0000 0000 000000
2015-11-06 00:54:55,0.00,1.88,0.00,19.16,23.70,27.58,14.97,49.09,1030.96,2046.99,2865.98,2773.99,3023.00,599.85,612.27,37.75,0000 0000 0000 0000 000000
2015-11-06 00:59:56,0.01,1.88,0.00,19.15,23.67,27.56,14.96,49.07,1031.09,2047.00,2865.69,2773.93,3022.93,599.90,612.47,37.80,0000 0000 0000 0000 000000
2015-11-06 01:04:57,0.04,1.88,0.00,19.14,23.67,27.61,14.93,49.03,1031.07,2047.02,2865.07,2773.35,3022.34,600.05,612.60,37.85,0000 0000 0000 0000 000000
2015-11-06 01:09:58,0.01,1.88,0.00,19.14,23.67,27.63,15.01,49.01,1031.13,2047.02,2864.96,2773.03,3022.02,599.89,612.46,37.90,0000 0000 0000 0000 000000
2015-11-06 01:15:00,0.01,1.88,0.00,19.14,23.66,27.57,15.02,49.08,1031.19,2047.01,2864.19,2773.00,3021.99,599.91,612.47,37.95,0000 0000 0000 0000 000000
2015-11-06 01:20:01,0.02,1.88,0.00,19.13,23.65,27.63,14.99,49.02,1031.23,2047.00,2863.99,2772.72,3021.59,600.03,612.74,38.00,0000 0000 0000 0000 000000
2015-11-06 01:25:02,0.03,1.89,0.00,19.12,23.65,27.56,14.98,49.00,1031.25,2047.01,2863.37,2772.07,3021.03,599.90,612.52,38.05,0000 0000 0000 0000 000000
2015-11-06 01:30:04,0.01,1.89,0.00,19.12,23.65,27.53,14.93,49.09,1031.26,2047.05,2863.03,2772.00,3021.00,599.83,612.51,38.10,0000 0000 0000 0000 000000
2015-11-06 01:35:05,0.00,1.89,0.00,19.11,23.64,27.55,14.98,49.14,1031.26,2047.05,2862.99,2772.00,3020.99,599.96,612.62,38.15,0000 0000 0000 0000 000000
2015-11-06 01:40:06,0.03,1.89,0.00,19.11,23.62,27.56,14.96,49.12,1031.26,2047.08,2862.43,2771.87,3020.58,599.70,612.22,38.20,0000 0000 0000 0000 000000
2015-11-06 01:45:07,0.03,1.89,0.00,19.10,23.62,27.51,15.05,49.25,1031.26,2047.08,2862.01,2771.19,3020.03,599.92,612.57,38.25,0000 0000 0000 0000 000000
2015-11-06 01:50:08,0.01,1.89,0.00,19.09,23.62,27.48,14.95,49.27,1031.26,2047.11,2861.76,2771.01,3019.99,599.77,612.47,38.30,0000 0000 0000 0000 000000
2015-11-06 01:55:09,0.01,1.89,0.00,19.09,23.62,27.52,15.00,49.19,1031.26,2047.14,2861.22,2770.99,3019.92,599.98,612.75,38.35,0000 0000 0000 0000 000000
2015-11-06 02:00:10,0.02,1.89,0.00,19.09,23.62,27.55,15.02,49.22,1031.26,2047.22,2861.10,2770.92,3019.37,600.07,612.71,38.41,0000 0000 0000 0000 000000
2015-11-06 02:05:12,0.02,1.89,0.00,19.10,23.62,27.50,14.94,49.17,1031.26,2047.10,2861.01,2770.31,3019.01,599.76,612.49,38.46,0000 0000 0000 0000 000000
2015-11-06 02:10:13,0.01,1.90,0.00,19.11,23.62,27.50,15.06,49.21,1031.23,2047.11,2860.54,2770.01,3018.97,599.91,612.56,38.51,0000 0000 0000 0000 000000
2015-11-06 02:15:14,0.01,1.90,0.00,19.12,23.62,27.50,14.97,49.15,1031.19,2047.07,2860.07,2769.99,3018.34,599.95,612.55,38.56,0000 0000 0000 0000 000000
2015-11-06 02:20:15,0.05,1.90,0.00,19.12,23.62,27.50,14.99,49.25,1031.21,2047.05,2859.55,2769.18,3017.81,599.99,612.55,38.61,0000 0000 0000 0000 000000
2015-11-06 02:25:16,0.07,1.90,0.00,19.13,23.61,27.44,15.09,49.18,1031.22,2047.03,2858.24,2768.20,3016.80,600.47,612.93,38.66,0000 0000 0000 0000 000000
2015-11-06 02:30:17,0.06,1.90,0.00,19.14,23.60,27.46,15.05,49.27,1031.16,2047.02,2856.93,2767.43,3015.93,600.33,612.84,38.71,0000 0000 0000 0000 000000
2015-11-06 02:35:19,0.05,1.91,0.00,19.14,23.60,27.46,14.94,49.15,1031.10,2047.02,2855.76,2766.75,3015.08,599.95,612.53,38.76,0000 0000 0000 0000 000000
2015-11-06 02:40:20,0.04,1.91,0.00,19.14,23.60,27.50,15.02,49.16,1031.13,2047.04,2854.90,2766.04,3014.54,600.06,612.56,38.81,0000 0000 0000 0000 000000
2015-11-06 02:45:21,0.02,1.91,0.00,19.14,23.60,27.48,15.04,49.27,1031.14,2047.02,2854.05,2765.80,3014.01,600.07,612.59,38.86,0000 0000 0000 0000 000000
2015-11-06 02:50:23,0.05,1.91,0.00,19.15,23.60,27.43,15.04,49.20,1031.19,2047.06,2853.59,2765.07,3013.51,600.03,612.61,38.91,0000 0000 0000 0000 000000
2015-11-06 02:55:24,0.03,1.92,0.00,19.16,23.60,27.41,14.98,49.27,1031.13,2047.06,2852.78,2764.77,3012.98,600.24,612.73,38.96,0000 0000 0000 0000 000000
2015-11-06 03:00:25,0.04,1.92,0.00,19.16,23.60,27.50,15.06,49.28,1031.04,2047.03,2851.93,2764.03,3012.22,600.20,612.65,39.01,0000 0000 0000 0000 000000
2015-11-06 03:05:26,0.03,1.92,0.00,19.17,23.60,27.43,15.07,49.04,1030.96,2047.04,2851.09,2763.73,3011.97,600.20,612.43,39.06,0000 0000 0000 0000 000000
2015-11-06 03:10:27,0.05,1.92,0.00,19.17,23.60,27.46,15.03,49.12,1031.01,2047.03,2850.36,2763.07,3011.24,600.17,612.53,39.11,0000 0000 0000 0000 000000
2015-11-06 03:15:28,0.00,1.92,0.00,19.18,23.59,27.47,15.02,49.08,1030.94,2047.05,2850.00,2762.99,3011.00,599.76,612.09,39.16,0000 0000 0000 0000 000000
2015-11-06 03:20:30,0.03,1.93,0.00,19.19,23.59,27.48,15.04,49.16,1030.95,2047.05,2849.51,2762.67,3010.91,599.86,612.17,39.21,0000 0000 0000 0000 000000
2015-11-06 03:25:31,0.03,1.93,0.00,19.19,23.58,27.52,14.97,49.13,1031.05,2047.08,2848.99,2762.05,3010.17,599.86,612.26,39.26,0000 0000 0000 0000 000000
2015-11-06 03:30:32,-0.00,1.93,0.00,19.21,23.58,27.43,15.00,49.08,1031.11,2047.04,2848.91,2762.00,3010.00,599.90,612.22,39.32,0000 0000 0000 0000 000000
2015-11-06 03:35:33,0.04,1.93,0.00,19.22,23.58,27.48,14.99,49.15,1031.13,2047.05,2848.07,2761.67,3009.67,600.03,612.39,39.37,0000 0000 0000 0000 000000
2015-11-06 03:40:35,0.01,1.93,0.00,19.22,23.59,27.43,15.02,48.96,1031.15,2047.04,2847.98,2761.06,3009.05,600.53,612.75,39.42,0000 0000 0000 0000 000000
2015-11-06 03:45:36,0.02,1.93,0.00,19.24,23.59,27.39,14.96,48.99,1031.24,2047.06,2847.38,2760.99,3008.99,599.91,612.45,39.47,0000 0000 0000 0000 000000
2015-11-06 03:50:38,0.04,1.93,0.00,19.24,23.60,27.42,15.09,49.02,1031.25,2047.12,2846.77,2760.67,3008.58,600.19,612.65,39.52,0000 0000 0000 0000 000000
2015-11-06 03:55:39,0.02,1.94,0.00,19.25,23.60,27.44,14.92,48.91,1031.26,2047.06,2846.02,2760.02,3008.02,599.83,612.17,39.57,0000 0000 0000 0000 000000
2015-11-06 04:00:40,0.03,1.94,0.00,19.25,23.61,27.43,14.93,48.92,1031.26,2047.04,2845.32,2759.85,3007.80,599.91,612.25,39.62,0000 0000 0000 0000 000000
2015-11-06 04:05:42,0.05,1.94,0.00,19.25,23.62,27.48,15.04,49.02,1031.26,2047.01,2844.45,2759.09,3007.06,600.26,612.59,39.67,0000 0000 0000 0000 000000
2015-11-06 04:10:43,0.01,1.94,0.00,19.26,23.64,27.48,15.01,49.09,1031.26,2047.04,2844.00,2758.98,3006.96,599.73,612.09,39.72,0000 0000 0000 0000 000000
2015-11-06 04:15:44,0.06,1.94,0.00,19.25,23.65,27.53,15.01,49.07,1031.26,2047.01,2843.48,2758.23,3006.08,600.26,612.62,39.77,0000 0000 0000 0000 000000
2015-11-06 04:20:46,0.08,1.95,0.00,19.24,23.67,27.53,15.01,49.00,1031.26,2047.00,2841.81,2757.25,3005.11,599.76,612.09,39.82,0000 0000 0000 0000 000000
2015-11-06 04:25:47,0.07,1.95,0.00,19.24,23.67,27.57,14.98,49.11,1031.26,2047.00,2840.53,2756.39,3004.11,599.91,612.28,39.87,0000 0000 0000 0000 000000
2015-11-06 04:30:48,0.18,1.96,0.00,19.24,23.69,27.58,15.08,49.11,1031.26,2047.00,2837.47,2754.49,3002.15,600.12,612.51,39.92,0000 0000 0000 0000 000000
2015-11-06 04:35:50,0.09,1.96,0.00,19.24,23.70,27.51,15.00,49.06,1031.26,2047.00,2836.06,2752.91,3000.43,600.07,612.38,39.97,0000 0000 0000 0000 000000
2015-11-06 04:40:51,0.11,1.97,0.00,19.24,23.71,27.61,14.96,49.06,1031.26,2047.00,2833.98,2751.64,2998.96,599.82,612.24,40.02,0000 0000 0000 0000 000000
2015-11-06 04:45:52,0.05,1.97,0.00,19.23,23.72,27.58,15.08,49.09,1031.26,2047.00,2832.57,2750.91,2998.00,600.05,612.49,40.07,0000 0000 0000 0000 000000
2015-11-06 04:50:53,0.07,1.98,0.00,19.22,23.72,27.56,15.04,49.13,1031.26,2047.00,2831.32,2750.05,2997.08,600.51,612.92,40.12,0000 0000 0000 0000 000000
2015-11-06 04:55:55,0.06,1.98,0.00,19.22,23.72,27.55,15.00,49.06,1031.26,2047.00,2830.37,2749.19,2996.16,600.11,612.48,40.18,0000 0000 0000 0000 000000
2015-11-06 05:00:56,0.04,1.98,0.00,19.22,23.72,27.58,15.09,49.20,1031.26,2047.00,2829.52,2748.82,2995.62,600.48,612.92,40.23,0000 0000 0000 0000 000000
2015-11-06 05:05:57,0.03,1.99,0.00,19.21,23.72,27.60,15.02,49.21,1031.26,2047.00,2828.94,2748.06,2995.02,600.17,612.63,40.28,0000 0000 0000 0000 000000
2015-11-06 05:10:58,0.03,1.99,0.00,19.19,23.71,27.56,15.04,49.18,1031.25,2047.00,2828.16,2747.97,2994.63,600.23,612.72,40.33,0000 0000 0000 0000 000000
2015-11-06 05:15:59,0.03,1.99,0.00,19.19,23.70,27.58,15.05,49.06,1031.24,2047.00,2827.86,2747.26,2994.01,600.46,612.95,40.38,0000 0000 0000 0000 000000
2015-11-06 05:21:01,0.02,1.99,0.00,19.17,23.70,27.59,14.92,48.97,1031.26,2047.00,2827.05,2747.00,2993.82,599.88,612.39,40.43,0000 0000 0000 0000 000000
2015-11-06 05:26:02,0.03,1.99,0.00,19.17,23.68,27.57,15.00,49.03,1031.26,2047.00,2826.65,2746.75,2993.07,600.27,612.71,40.48,0000 0000 0000 0000 000000
2015-11-06 05:31:03,0.04,1.99,0.00,19.15,23.67,27.51,15.01,49.08,1031.26,2047.00,2825.77,2746.02,2992.76,600.05,612.62,40.53,0000 0000 0000 0000 000000
2015-11-06 05:36:04,0.05,2.00,0.00,19.14,23.65,27.54,14.95,49.01,1031.26,2047.00,2824.81,2745.58,2992.03,599.84,612.45,40.58,0000 0000 0000 0000 000000
2015-11-06 05:41:06,0.05,2.00,0.00,19.12,23.65,27.56,14.98,48.93,1031.26,2047.00,2823.67,2744.85,2991.42,599.59,612.17,40.63,0000 0000 0000 0000 000000
2015-11-06 05:46:07,0.06,2.00,0.00,19.11,23.63,27.55,15.06,49.00,1031.26,2047.00,2822.44,2744.05,2990.54,600.36,613.00,40.68,0000 0000 0000 0000 000000
2015-11-06 05:51:08,0.07,2.01,0.00,19.09,23.62,27.50,14.98,49.01,1031.26,2047.00,2821.29,2743.22,2989.65,599.73,612.41,40.73,0000 0000 0000 0000 000000
2015-11-06 05:56:10,0.08,2.01,0.00,19.08,23.61,27.51,15.02,49.26,1031.26,2047.00,2819.96,2742.30,2988.61,599.98,612.79,40.78,0000 0000 0000 0000 000000
2015-11-06 06:01:11,0.25,2.02,0.00,19.07,23.60,27.51,15.04,49.13,1031.26,2047.00,2816.27,2739.55,2985.83,600.26,613.14,40.83,0000 0000 0000 0000 000000
2015-11-06 06:06:12,0.25,2.03,0.00,19.05,23.58,27.52,14.95,49.13,1031.26,2047.00,2811.92,2736.25,2982.40,599.63,612.51,40.88,0000 0000 0000 0000 000000
2015-11-06 06:11:13,0.20,2.04,0.00,19.03,23.57,27.52,15.03,49.08,1031.26,2047.00,2808.42,2733.54,2979.58,600.38,613.22,40.93,0000 0000 0000 0000 000000
2015-11-06 06:16:15,0.18,2.05,0.00,19.02,23.56,27.53,14.98,49.23,1031.26,2047.00,2804.97,2731.11,2977.03,599.66,612.47,40.98,0000 0000 0000 0000 000000
2015-11-06 06:21:16,0.13,2.06,0.00,19.02,23.55,27.47,15.02,49.23,1031.26,2047.01,2802.55,2729.32,2975.14,599.97,612.77,41.03,0000 0000 0000 0000 000000
2015-11-06 06:26:17,0.16,2.07,0.00,19.00,23.54,27.44,14.97,49.05,1031.26,2047.00,2799.95,2727.39,2973.07,600.30,613.18,41.08,0000 0000 0000 0000 000000
2015-11-06 06:31:20,0.20,2.08,0.00,18.98,23.52,27.47,15.04,49.20,1031.25,2047.02,2796.54,2724.89,2970.48,599.84,612.76,41.13,0000 0000 0000 0000 000000
2015-11-06 06:36:21,0.17,2.09,0.00,18.98,23.52,27.45,14.97,48.98,1031.26,2047.03,2793.57,2722.58,2968.08,599.68,612.57,41.19,0000 0000 0000 0000 000000
2015-11-06 06:41:23,0.07,2.09,0.00,18.97,23.51,27.42,15.03,49.19,1031.25,2047.01,2792.15,2721.32,2966.84,599.86,612.69,41.24,0000 0000 0000 0000 000000
2015-11-06 06:46:24,0.02,2.10,0.00,18.94,23.50,27.41,15.02,49.22,1031.26,2047.02,2791.77,2721.00,2966.08,599.98,613.07,41.29,0000 0000 0000 0000 000000
2015-11-06 06:51:25,0.02,2.10,0.00,18.92,23.49,27.44,15.05,49.17,1031.23,2047.05,2791.03,2720.95,2966.00,600.30,613.36,41.34,0000 0000 0000 0000 000000
2015-11-06 06:56:27,0.04,2.10,0.00,18.91,23.47,27.45,15.03,49.13,1031.23,2047.07,2790.89,2720.23,2965.75,599.92,612.99,41.39,0000 0000 0000 0000 000000
2015-11-06 07:01:28,0.02,2.10,0.00,18.89,23.47,27.46,14.98,49.24,1031.23,2047.12,2790.07,2719.99,2965.06,599.47,612.55,41.44,0000 0000 0000 0000 000000
2015-11-06 07:06:29,0.09,2.11,0.00,18.88,23.45,27.40,15.01,49.36,1031.23,2047.21,2788.84,2719.19,2964.35,599.84,613.06,41.49,0000 0000 0000 0000 000000
2015-11-06 07:11:31,0.09,2.11,0.00,18.87,23.44,27.40,15.02,49.43,1031.24,2047.43,2787.47,2718.19,2963.41,600.21,613.36,41.54,0000 0000 0000 0000 000000
2015-11-06 07:16:32,0.10,2.11,0.00,18.86,23.42,27.38,15.00,49.24,1031.21,2047.69,2786.19,2717.21,2962.45,599.73,612.89,41.59,0000 0000 0000 0000 000000
2015-11-06 07:21:33,0.05,2.12,0.00,18.84,23.42,27.38,15.09,49.27,1031.11,2047.59,2785.01,2716.21,2961.25,600.82,613.99,41.64,0000 0000 0000 0000 000000
2015-11-06 07:26:35,0.09,2.12,0.00,18.82,23.40,27.36,15.02,49.02,1030.88,2047.77,2784.03,2715.48,2960.41,599.93,612.99,41.69,0000 0000 0000 0000 000000
2015-11-06 07:31:37,0.04,2.13,0.00,18.80,23.39,27.32,15.02,49.17,1030.87,2047.87,2783.13,2714.88,2959.76,599.90,612.97,41.74,0000 0000 0000 0000 000000
2015-11-06 07:36:38,0.06,2.13,0.00,18.79,23.37,27.36,15.03,49.14,1030.87,2047.92,2782.33,2714.09,2959.03,599.87,612.99,41.79,0000 0000 0000 0000 000000
2015-11-06 07:41:39,0.01,2.13,0.00,18.77,23.37,27.35,15.06,49.02,1030.82,2047.92,2781.93,2713.99,2958.81,600.17,613.42,41.84,0000 0000 0000 0000 000000
2015-11-06 07:46:40,0.06,2.13,0.00,18.74,23.35,27.31,14.97,49.06,1030.81,2047.96,2781.08,2713.42,2958.08,600.09,613.22,41.89,0000 0000 0000 0000 000000
2015-11-06 07:51:41,0.02,2.13,0.00,18.73,23.34,27.24,15.00,49.25,1030.79,2047.96,2780.22,2713.01,2957.96,599.86,613.04,41.94,0000 0000 0000 0000 000000
2015-11-06 07:56:43,0.02,2.14,0.00,18.71,23.32,27.28,15.07,49.33,1030.81,2047.97,2779.98,2712.88,2957.40,600.32,613.40,41.99,0000 0000 0000 0000 000000
2015-11-06 08:01:44,0.04,2.14,0.00,18.69,23.30,27.24,15.07,49.45,1030.83,2047.99,2779.30,2712.16,2957.01,600.68,614.00,42.05,0000 0000 0000 0000 000000
2015-11-06 08:06:45,0.00,2.14,0.00,18.67,23.28,27.21,14.99,49.37,1030.88,2047.99,2778.94,2712.00,2956.98,599.99,613.36,42.10,0000 0000 0000 0000 000000
2015-11-06 08:11:47,0.03,2.14,0.00,18.65,23.26,27.20,15.07,49.38,1030.91,2048.01,2778.24,2712.00,2956.61,600.15,613.59,42.15,0000 0000 0000 0000 000000
2015-11-06 08:16:48,0.02,2.14,0.00,18.65,23.24,27.17,15.01,49.34,1031.03,2048.01,2777.99,2711.55,2956.04,599.76,613.22,42.20,0000 0000 0000 0000 000000
2015-11-06 08:21:50,0.02,2.14,0.00,18.64,23.23,27.15,14.96,49.26,1031.13,2048.01,2777.47,2711.05,2956.00,599.65,613.27,42.25,0000 0000 0000 0000 000000
2015-11-06 08:26:51,0.01,2.14,0.00,18.62,23.22,27.20,15.09,49.31,1030.98,2048.03,2777.03,2711.00,2955.74,600.00,613.54,42.30,0000 0000 0000 0000 000000
2015-11-06 08:31:52,0.03,2.15,0.00,18.60,23.19,27.14,15.05,49.34,1030.89,2048.21,2776.90,2710.97,2955.11,600.01,613.58,42.35,0000 0000 0000 0000 000000
2015-11-06 08:36:53,0.06,2.15,0.00,18.58,23.19,27.15,15.06,49.33,1030.91,2048.41,2776.17,2710.39,2955.00,599.96,613.46,42.40,0000 0000 0000 0000 000000
2015-11-06 08:41:54,0.04,2.15,0.00,18.57,23.17,27.12,15.11,49.38,1030.99,2048.83,2775.96,2710.02,2954.99,600.24,613.89,42.45,0000 0000 0000 0000 000000
2015-11-06 08:46:56,0.02,2.15,0.00,18.54,23.15,27.08,15.06,49.57,1030.87,2048.96,2775.45,2710.00,2954.85,599.88,613.50,42.50,0000 0000 0000 0000 000000
2015-11-06 08:51:57,0.02,2.15,0.00,18.52,23.14,27.08,15.09,49.49,1030.94,2048.97,2774.96,2709.91,2954.19,600.14,613.81,42.55,0000 0000 0000 0000 000000
2015-11-06 08:56:58,0.04,2.16,0.00,18.51,23.12,27.10,15.04,49.70,1031.10,2048.98,2774.17,2709.26,2954.00,600.16,614.07,42.60,0000 0000 0000 0000 000000
2015-11-06 09:01:59,0.00,2.16,0.00,18.49,23.12,27.07,14.99,49.50,1031.18,2048.99,2773.99,2709.00,2953.96,599.81,613.74,42.65,0000 0000 0000 0000 000000
2015-11-06 09:07:01,0.00,2.16,0.00,18.48,23.10,27.08,15.03,49.58,1031.21,2048.99,2773.99,2709.00,2953.54,599.84,613.79,42.70,0000 0000 0000 0000 000000
2015-11-06 09:12:02,0.01,2.16,0.00,18.47,23.09,27.03,15.00,49.64,1031.18,2048.98,2773.99,2708.97,2953.05,599.88,613.84,42.75,0000 0000 0000 0000 000000
2015-11-06 09:17:03,0.03,2.16,0.00,18.47,23.08,27.01,15.00,49.48,1031.17,2048.99,2773.48,2708.62,2953.00,599.84,613.83,42.80,0000 0000 0000 0000 000000
2015-11-06 09:22:04,0.03,2.16,0.00,18.45,23.07,26.97,15.08,49.63,1031.23,2048.99,2772.82,2708.06,2952.77,600.00,614.11,42.85,0000 0000 0000 0000 000000
2015-11-06 09:27:06,0.02,2.16,0.00,18.44,23.05,27.02,15.07,49.57,1031.21,2048.99,2772.09,2707.98,2952.08,600.05,614.09,42.90,0000 0000 0000 0000 000000
2015-11-06 09:32:07,0.00,2.16,0.00,18.42,23.04,26.96,15.16,49.62,1031.21,2048.99,2772.00,2707.87,2952.00,600.55,614.59,42.95,0000 0000 0000 0000 000000
2015-11-06 09:37:08,0.04,2.16,0.00,18.40,23.02,26.99,15.10,49.52,1031.20,2048.99,2771.39,2707.17,2951.95,600.37,614.39,43.01,0000 0000 0000 0000 000000
2015-11-06 09:42:09,0.01,2.17,0.00,18.39,23.02,26.92,15.06,49.47,1031.17,2048.99,2771.13,2707.02,2951.46,599.71,613.83,43.06,0000 0000 0000 0000 000000
2015-11-06 09:47:11,0.00,2.17,0.00,18.37,23.00,26.96,15.05,49.54,1031.11,2049.01,2771.00,2707.00,2951.07,600.29,614.43,43.11,0000 0000 0000 0000 000000
2015-11-06 09:52:12,0.00,2.17,0.00,18.35,22.98,26.90,15.06,49.48,1031.00,2049.04,2770.99,2706.97,2951.00,599.90,614.02,43.16,0000 0000 0000 0000 000000
2015-11-06 09:57:13,0.04,2.17,0.00,18.34,22.97,26.93,15.06,49.65,1030.91,2049.05,2770.32,2706.50,2950.96,599.98,614.10,43.21,0000 0000 0000 0000 000000
2015-11-06 10:02:15,0.03,2.17,0.00,18.33,22.95,26.93,15.00,49.51,1030.86,2049.17,2769.92,2706.04,2950.43,599.65,613.68,43.26,0000 0000 0000 0000 000000
2015-11-06 10:07:16,0.02,2.17,0.00,18.32,22.94,26.86,15.09,49.48,1030.87,2049.21,2769.14,2706.00,2950.02,599.96,614.11,43.31,0000 0000 0000 0000 000000
2015-11-06 10:12:17,0.05,2.17,0.00,18.30,22.92,26.84,15.05,49.42,1030.87,2049.63,2769.00,2705.97,2950.00,600.18,614.31,43.36,0000 0000 0000 0000 000000
2015-11-06 10:17:19,0.02,2.17,0.00,18.28,22.91,26.81,15.04,49.31,1030.85,2049.68,2768.97,2705.53,2949.90,599.72,614.09,43.41,0000 0000 0000 0000 000000
2015-11-06 10:22:20,0.04,2.18,0.00,18.27,22.89,26.86,15.06,49.40,1030.83,2049.81,2768.54,2705.06,2949.34,600.30,614.40,43.46,0000 0000 0000 0000 000000
2015-11-06 10:27:21,0.02,2.18,0.00,18.24,22.87,26.80,15.12,49.39,1030.81,2049.85,2768.02,2705.00,2949.01,600.25,614.47,43.51,0000 0000 0000 0000 000000
2015-11-06 10:32:23,-0.00,2.18,0.00,18.23,22.86,26.78,14.98,49.39,1030.80,2049.91,2768.00,2704.98,2948.99,599.73,613.99,43.56,0000 0000 0000 0000 000000
2015-11-06 10:37:24,0.02,2.18,0.00,18.22,22.84,26.81,15.09,49.61,1030.79,2049.98,2767.86,2704.75,2948.88,599.93,614.40,43.61,0000 0000 0000 0000 000000
2015-11-06 10:42:26,0.04,2.18,0.00,18.20,22.83,26.77,15.12,49.60,1030.79,2049.98,2767.11,2704.13,2948.18,600.21,614.51,43.66,0000 0000 0000 0000 000000
2015-11-06 10:47:27,0.00,2.18,0.00,18.19,22.81,26.76,15.06,49.44,1030.78,2049.98,2766.95,2704.01,2948.01,600.12,614.47,43.71,0000 0000 0000 0000 000000
2015-11-06 10:52:28,0.02,2.18,0.00,18.17,22.79,26.77,15.10,49.61,1030.78,2049.99,2766.21,2703.99,2947.99,600.27,614.68,43.76,0000 0000 0000 0000 000000
2015-11-06 10:57:29,0.00,2.18,0.00,18.15,22.77,26.72,15.10,49.70,1030.78,2049.99,2766.00,2703.97,2947.93,599.76,614.16,43.81,0000 0000 0000 0000 000000
2015-11-06 11:02:31,0.05,2.19,0.00,18.14,22.75,26.68,15.08,49.62,1030.78,2050.00,2765.60,2703.54,2947.34,600.19,614.61,43.86,0000 0000 0000 0000 000000
2015-11-06 11:07:32,0.01,2.19,0.00,18.13,22.74,26.70,15.13,49.46,1030.78,2050.00,2765.01,2703.02,2947.01,600.02,614.46,43.92,0000 0000 0000 0000 000000
2015-11-06 11:12:33,0.00,2.19,0.00,18.12,22.72,26.66,15.08,49.51,1030.78,2050.01,2764.96,2703.00,2947.00,600.41,614.89,43.97,0000 0000 0000 0000 000000
2015-11-06 11:17:35,0.02,2.19,0.00,18.10,22.70,26.70,15.09,49.56,1030.78,2050.01,2764.47,2702.97,2946.75,599.70,614.21,44.02,0000 0000 0000 0000 000000
2015-11-06 11:22:36,0.03,2.19,0.00,18.09,22.69,26.66,14.99,49.41,1030.78,2050.01,2764.02,2702.61,2946.11,599.74,614.23,44.07,0000 0000 0000 0000 000000
2015-11-06 11:27:37,0.02,2.19,0.00,18.07,22.67,26.63,15.11,49.62,1030.78,2050.03,2763.92,2702.05,2946.00,600.53,615.11,44.12,0000 0000 0000 0000 000000
2015-11-06 11:32:39,0.02,2.19,0.00,18.07,22.66,26.63,15.00,49.60,1030.78,2050.11,2763.32,2702.02,2946.00,599.94,614.50,44.17,0000 0000 0000 0000 000000
2015-11-06 11:37:40,0.02,2.19,0.00,18.05,22.64,26.65,15.11,49.55,1030.78,2050.26,2763.01,2702.00,2945.92,600.13,614.80,44.22,0000 0000 0000 0000 000000
2015-11-06 11:42:41,0.05,2.20,0.00,18.03,22.63,26.55,15.07,49.59,1030.78,2050.59,2762.93,2701.95,2945.38,599.65,614.32,44.27,0000 0000 0000 0000 000000
2015-11-06 11:47:43,0.05,2.20,0.00,18.02,22.62,26.58,15.03,49.54,1030.78,2050.70,2762.19,2701.29,2945.03,599.82,614.51,44.32,0000 0000 0000 0000 000000
2015-11-06 11:52:44,0.02,2.20,0.00,17.99,22.60,26.56,15.07,49.48,1030.78,2050.80,2761.88,2701.01,2944.98,600.02,614.88,44.37,0000 0000 0000 0000 000000
2015-11-06 11:57:45,0.02,2.20,0.00,17.99,22.59,26.51,15.11,49.59,1030.78,2050.94,2761.50,2701.00,2944.88,599.96,614.70,44.42,0000 0000 0000 0000 000000
2015-11-06 12:02:47,0.02,2.20,0.00,17.99,22.57,26.56,15.11,49.48,1030.78,2050.96,2761.07,2700.98,2944.36,599.98,614.69,44.47,0000 0000 0000 0000 000000
2015-11-06 12:07:48,0.01,2.20,0.00,17.98,22.55,26.50,15.07,49.50,1030.78,2050.98,2760.99,2700.86,2944.04,600.14,614.77,44.52,0000 0000 0000 0000 000000
2015-11-06 12:12:49,0.02,2.20,0.00,17.97,22.54,26.52,15.10,49.63,1030.78,2050.99,2760.99,2700.33,2944.00,599.53,614.44,44.57,0000 0000 0000 0000 000000
2015-11-06 12:17:51,0.02,2.21,0.00,17.96,22.52,26.49,15.05,49.51,1030.78,2050.99,2760.58,2700.07,2944.00,599.67,614.56,44.62,0000 0000 0000 0000 000000
2015-11-06 12:22:52,0.01,2.21,0.00,17.94,22.52,26.45,15.08,49.58,1030.78,2050.99,2760.04,2700.00,2943.87,600.10,614.94,44.67,0000 0000 0000 0000 000000
2015-11-06 12:27:53,0.02,2.21,0.00,17.93,22.49,26.46,15.10,49.64,1030.78,2050.99,2759.78,2699.96,2943.27,599.96,614.94,44.72,0000 0000 0000 0000 000000
2015-11-06 12:32:55,0.04,2.21,0.00,17.92,22.49,26.46,15.11,49.48,1030.78,2051.00,2759.03,2699.38,2943.01,600.44,615.38,44.78,0000 0000 0000 0000 000000
2015-11-06 12:37:56,0.00,2.21,0.00,17.91,22.47,26.43,15.04,49.52,1030.78,2051.01,2758.91,2699.03,2942.97,599.77,614.66,44.83,0000 0000 0000 0000 000000
2015-11-06 12:42:57,0.03,2.21,0.00,17.89,22.46,26.44,15.08,49.82,1030.78,2051.00,2758.13,2699.00,2942.62,600.12,615.11,44.88,0000 0000 0000 0000 000000
2015-11-06 12:47:59,0.01,2.21,0.00,17.89,22.44,26.42,15.13,49.54,1030.78,2051.03,2758.00,2698.98,2942.08,599.86,614.67,44.93,0000 0000 0000 0000 000000
2015-11-06 12:53:00,0.00,2.21,0.00,17.88,22.43,26.42,15.04,49.48,1030.78,2051.05,2757.95,2698.79,2942.00,600.17,615.11,44.98,0000 0000 0000 0000 000000
2015-11-06 12:58:01,0.04,2.21,0.00,17.86,22.42,26.40,15.02,49.63,1030.78,2051.05,2757.28,2698.13,2941.99,599.65,614.65,45.03,0000 0000 0000 0000 000000